Location: Street
(51.1247°N, 2.7429°W)
Time: 17:47:08
(UTC+00:00)

N. Korean satellite - Pass Details

Date: 02 November 2020
Orbit: 453 x 503 km, 97.2° (Epoch: 04 December)

Event Time Altitude Azimuth Distance (km) Brightness Sun altitude
Rises 18:07:10 0° 218° (SW) 2,519 10.9 -13.6°
Reaches altitude 10° 18:10:50 10° 259° (W) 1,634 10.7 -14.2°
Maximum altitude 18:11:39 11° 272° (W) 1,595 10.5 -14.3°
Drops below altitude 10° 18:12:27 10° 286° (WNW) 1,631 10.4 -14.5°
Sets 18:16:07 0° 327° (NNW) 2,502 10.6 -15.0°
